sat.trackr.live / text

‹ back to catalog

STARLINK-2585

NORAD 48382 · 2021-038AF

PAYLOAD ACTIVE UNKNOWN

§ Identity

Operator
Country
US
Launch date
2021-05-04
Launch site
AFETR
Launch vehicle
Mass (kg)
RCS (m²)

Purposes: comms

External: N2YO · Heavens-Above · Gunter

§ Orbital elements

Epoch: 2026-09-19T05:35:07.078848Z

Period
94.01 min
Inclination
53.1613°
Eccentricity
0.0001215
Mean motion
15.31707439 rev/d
Perigee alt
469.9 km
Apogee alt
471.5 km
Semi-major
6,848.9 km
B*
-4.3329e-5
RAAN
167.0776°
Arg perigee
92.7064°
Mean anomaly
267.4076°
Rev number
29,688

§ Raw data

STARLINK-25851 48382U 21038AF  26262.23272082 -.00001710  00000+0 -43329-4 0  99982 48382  53.1613 167.0776 0001215  92.7064 267.4076 15.31707439296882

JSON: /api/v1/satellites/48382 · /tle

For live sub-satellite position, see the globe view (requires WebGL).

§ Visibility from observer

Set your observer location to see the next 7 days of passes ≥ 10°. The values pass through the URL so the page stays shareable.

No JS? Fill the form by hand. The geolocation button needs JavaScript.